M I D A S
Marine Information and Data Acquisition System
Tripno 2001 of the Zeeleeuw from 2010-12-14 08:10:19 to 2010-12-14 15:06:46
Back to CruiseResearch ActivitiesStationsMapUnderway DataData graphs

EquipmentUnitsComments
TimeDGPSUTC
LatitudeDGPSDM.mWGS84
LongitudeDGPSDM.mWGS84
SpeedMeteo Stationm/sRelative wind speed
DirectionMeteo StationdegRelative wind direction
TemperatureMeteo Stationdeg CelciusAir temperature
PressureMeteo StationPaAtmospheric pressure
HumidityMeteo Station%Relative humidity
Missing or incorrect values are displayed as -999
Metereological data collected by the RV Zeeleeuw from 2010-12-14 07:22:28 to 2010-12-14 15:12:00
Time Latitude Longitude Speed Direction Temperature Pressure Humidity
2010-12-14 07:23 51°13.662 2°55.959 -999 22 -0.9 102940 32
2010-12-14 07:24 51°13.662 2°55.959 -999 22 -0.8 102940 32
2010-12-14 07:25 51°13.662 2°55.959 -999 248 -0.8 102930 31
2010-12-14 07:26 51°13.662 2°55.96 -999 258 -0.8 102930 32
2010-12-14 07:27 51°13.662 2°55.96 -999 249 -0.8 102940 32
2010-12-14 07:28 51°13.662 2°55.959 -999 22 -0.8 102940 32
2010-12-14 07:29 51°13.662 2°55.96 -999 252 -0.8 102950 32
2010-12-14 07:30 51°13.662 2°55.96 -999 256 -0.8 102940 32
2010-12-14 07:31 51°13.662 2°55.96 4.9 246 -0.8 102940 32
2010-12-14 07:32 51°13.661 2°55.96 5.5 21 -0.8 102950 31
2010-12-14 07:33 51°13.661 2°55.96 4.2 253 -0.8 102950 31
2010-12-14 07:34 51°13.66 2°55.96 3.1 253 -0.8 102960 33
2010-12-14 07:35 51°13.661 2°55.96 5 251 -0.7 102950 31
2010-12-14 07:36 51°13.661 2°55.96 3.9 25 -0.7 102950 32
2010-12-14 07:37 51°13.661 2°55.96 4.4 19 -0.7 102960 31
2010-12-14 07:38 51°13.661 2°55.96 3.6 252 -0.7 102950 31
2010-12-14 07:39 51°13.661 2°55.96 1.6 247 -0.8 102960 33
2010-12-14 07:40 51°13.661 2°55.961 -999 22 -0.8 102960 32
2010-12-14 07:41 51°13.66 2°55.959 4.6 252 -0.8 102960 30
2010-12-14 07:42 51°13.66 2°55.96 4.6 19 -0.8 102960 31
2010-12-14 07:43 51°13.66 2°55.96 0.2 22 -0.8 102970 31
2010-12-14 07:44 51°13.66 2°55.96 2.3 255 -0.8 102970 32
2010-12-14 07:45 51°13.661 2°55.96 4.2 21 -0.8 102970 31
2010-12-14 07:46 51°13.662 2°55.96 1.3 249 -0.8 102970 32
2010-12-14 07:47 51°13.662 2°55.961 4.7 17 -0.8 102970 32
2010-12-14 07:48 51°13.663 2°55.961 3.4 249 -0.8 102970 31
2010-12-14 07:49 51°13.663 2°55.961 -999 22 -0.8 102970 31
2010-12-14 07:50 51°13.663 2°55.961 3.4 246 -0.8 102970 33
2010-12-14 07:51 51°13.663 2°55.961 2.1 258 -0.8 102970 31
2010-12-14 07:52 51°13.663 2°55.96 -999 22 -0.8 102970 32
2010-12-14 07:53 51°13.662 2°55.96 -999 249 -0.8 102970 32
2010-12-14 07:54 51°13.662 2°55.96 5.9 23 -0.8 102980 34
2010-12-14 07:55 51°13.661 2°55.961 4.5 20 -0.7 102980 33
2010-12-14 07:56 51°13.661 2°55.955 -999 22 -0.7 102990 31
2010-12-14 07:57 51°13.682 2°55.846 -999 249 -0.7 102990 32
2010-12-14 07:58 51°13.696 2°55.742 -999 251 -0.7 102980 32
2010-12-14 07:59 51°13.705 2°55.752 -999 329 -0.6 102980 32
2010-12-14 08:00 51°13.684 2°55.731 -999 358 -0.6 102980 32
2010-12-14 08:01 51°13.741 2°55.694 -999 358 -0.5 102980 32
2010-12-14 08:02 51°13.866 2°55.602 -999 350 -0.4 102980 32
2010-12-14 08:03 51°14.02 2°55.493 10.1 352 -0.3 102970 31
2010-12-14 08:04 51°14.187 2°55.368 8.8 356 -0.2 102970 32
2010-12-14 08:05 51°14.349 2°55.202 9.8 5 -0.1 102950 31
2010-12-14 08:06 51°14.519 2°55.023 11.1 359 -999 102950 32
2010-12-14 08:07 51°14.673 2°54.839 12.6 358 0.2 102930 32
2010-12-14 08:08 51°14.849 2°54.663 14.5 356 0.3 102950 33
2010-12-14 08:09 51°15.046 2°54.55 16.8 348 0.3 102960 33
2010-12-14 08:10 51°15.25 2°54.465 6.5 353 0.4 102940 33
2010-12-14 08:11 51°15.448 2°54.345 6.2 356 0.3 102940 33
2010-12-14 08:12 51°15.647 2°54.217 15.8 359 0.4 102920 33
2010-12-14 08:13 51°15.832 2°54.041 15 -999 0.4 102940 31
2010-12-14 08:14 51°16.011 2°53.866 12.7 359 0.5 102950 34
2010-12-14 08:15 51°16.191 2°53.682 5.8 360 0.4 102950 33
2010-12-14 08:16 51°16.362 2°53.482 14.4 2 0.4 102950 34
2010-12-14 08:17 51°16.538 2°53.283 11.9 4 0.4 102950 32
2010-12-14 08:18 51°16.716 2°53.09 8.3 358 0.3 102980 32
2010-12-14 08:19 51°16.885 2°52.897 9.2 2 0.4 102970 34
2010-12-14 08:20 51°17.062 2°52.715 5.7 -999 0.5 102970 34
2010-12-14 08:21 51°17.258 2°52.611 11.2 354 0.5 102940 32
2010-12-14 08:22 51°17.472 2°52.568 10.8 353 0.6 102950 35
2010-12-14 08:23 51°17.677 2°52.56 11.7 351 0.5 102930 32
2010-12-14 08:24 51°17.881 2°52.574 6.1 346 0.5 102950 33
2010-12-14 08:25 51°18.091 2°52.578 16.4 350 0.5 102970 33
2010-12-14 08:26 51°18.302 2°52.578 11.8 349 0.5 102960 32
2010-12-14 08:27 51°18.515 2°52.577 15.9 348 0.5 102950 34
2010-12-14 08:28 51°18.722 2°52.571 15.4 350 0.5 102960 32
2010-12-14 08:29 51°18.932 2°52.566 13.3 349 0.5 102980 33
2010-12-14 08:30 51°19.144 2°52.556 11.2 350 0.6 102960 33
2010-12-14 08:31 51°19.359 2°52.549 9.1 347 0.6 102960 33
2010-12-14 08:32 51°19.568 2°52.541 15.9 347 0.7 102970 34
2010-12-14 08:33 51°19.779 2°52.531 10 347 0.6 103000 32
2010-12-14 08:34 51°19.98 2°52.522 10.5 353 0.6 102980 34
2010-12-14 08:35 51°20.191 2°52.512 12.2 351 0.6 102990 34
2010-12-14 08:36 51°20.405 2°52.502 9.6 350 0.7 102970 33
2010-12-14 08:37 51°20.61 2°52.49 14 350 0.7 102990 33
2010-12-14 08:38 51°20.822 2°52.48 10.1 351 0.7 102980 33
2010-12-14 08:39 51°21.036 2°52.47 9.2 347 0.7 102980 33
2010-12-14 08:40 51°21.249 2°52.459 10.9 348 0.7 102990 34
2010-12-14 08:41 51°21.463 2°52.449 12.6 350 0.7 102990 34
2010-12-14 08:42 51°21.674 2°52.438 13.7 351 0.7 102980 32
2010-12-14 08:43 51°21.889 2°52.429 14.9 349 0.8 102990 33
2010-12-14 08:44 51°22.101 2°52.422 13 351 0.8 102980 34
2010-12-14 08:45 51°22.315 2°52.414 11.1 352 0.9 103000 34
2010-12-14 08:46 51°22.523 2°52.406 11.6 349 0.8 102980 33
2010-12-14 08:47 51°22.727 2°52.398 8.9 353 0.9 102990 34
2010-12-14 08:48 51°22.931 2°52.392 8.8 353 0.9 103000 33
2010-12-14 08:49 51°23.143 2°52.388 5.9 349 1 103000 34
2010-12-14 08:50 51°23.346 2°52.379 11.5 348 1 103010 32
2010-12-14 08:51 51°23.551 2°52.372 14.5 352 1.1 103000 34
2010-12-14 08:52 51°23.761 2°52.386 9.4 349 1.1 102990 32
2010-12-14 08:53 51°23.975 2°52.409 9.8 350 1.1 103010 32
2010-12-14 08:54 51°24.189 2°52.434 14 345 1.1 103010 34
2010-12-14 08:55 51°24.397 2°52.461 13.9 348 1 103000 33
2010-12-14 08:56 51°24.605 2°52.486 11.4 346 1.2 103000 33
2010-12-14 08:57 51°24.818 2°52.51 13.8 346 1.2 103000 33
2010-12-14 08:58 51°25.028 2°52.533 11.2 351 1.3 103010 32
2010-12-14 08:59 51°25.239 2°52.56 13.7 347 1.4 102980 33
2010-12-14 09:00 51°25.442 2°52.586 12.9 349 1.3 102990 32
2010-12-14 09:01 51°25.649 2°52.618 13.2 343 1.3 102990 31
2010-12-14 09:02 51°25.854 2°52.696 13.9 347 1.4 103000 34
2010-12-14 09:03 51°26.056 2°52.781 16.8 342 1.4 103000 34
2010-12-14 09:04 51°26.259 2°52.865 11.2 346 1.3 103010 33
2010-12-14 09:05 51°26.465 2°52.948 14.7 342 1.3 103020 33
2010-12-14 09:06 51°26.671 2°53.033 13.1 345 1.3 103020 33
2010-12-14 09:07 51°26.877 2°53.109 7.2 347 1.3 103000 33
2010-12-14 09:08 51°27.079 2°53.184 10.8 343 1.4 103010 33
2010-12-14 09:09 51°27.28 2°53.261 14.5 348 1.4 102980 31
2010-12-14 09:10 51°27.477 2°53.337 15.5 348 1.4 102990 34
2010-12-14 09:11 51°27.684 2°53.419 11.5 340 1.5 103000 33
2010-12-14 09:12 51°27.891 2°53.502 6.3 344 1.5 103010 32
2010-12-14 09:13 51°28.1 2°53.585 14.9 348 1.5 103000 33
2010-12-14 09:14 51°28.308 2°53.667 11.6 349 1.5 103000 32
2010-12-14 09:15 51°28.52 2°53.749 13.8 346 1.6 102990 34
2010-12-14 09:16 51°28.729 2°53.835 10.9 343 1.6 103000 34
2010-12-14 09:17 51°28.931 2°53.919 12.6 345 1.6 103020 33
2010-12-14 09:18 51°29.127 2°54.002 13.9 344 1.6 102990 34
2010-12-14 09:19 51°29.332 2°54.087 14.5 347 1.6 103010 33
2010-12-14 09:20 51°29.538 2°54.172 15.1 345 1.6 103000 33
2010-12-14 09:21 51°29.738 2°54.253 10.7 345 1.6 103000 32
2010-12-14 09:22 51°29.942 2°54.352 9 345 1.6 103020 32
2010-12-14 09:23 51°30.139 2°54.445 15.8 344 1.6 103030 33
2010-12-14 09:24 51°30.342 2°54.543 6.8 344 1.7 103030 34
2010-12-14 09:25 51°30.545 2°54.64 14.2 346 1.8 103020 32
2010-12-14 09:26 51°30.75 2°54.74 11.2 339 1.7 103010 33
2010-12-14 09:27 51°30.958 2°54.828 14.4 345 1.6 103020 32
2010-12-14 09:28 51°31.164 2°54.915 14 346 1.6 103030 34
2010-12-14 09:29 51°31.366 2°55.001 12.5 348 1.5 103030 33
2010-12-14 09:30 51°31.575 2°55.088 10.6 349 1.6 103010 33
2010-12-14 09:31 51°31.785 2°55.177 12.4 342 1.7 103030 33
2010-12-14 09:32 51°31.996 2°55.265 13.4 345 1.7 103020 33
2010-12-14 09:33 51°32.204 2°55.353 8.9 341 1.7 103020 33
2010-12-14 09:34 51°32.385 2°55.429 10 348 1.7 103040 34
2010-12-14 09:35 51°32.504 2°55.476 6.7 341 1.7 103060 33
2010-12-14 09:36 51°32.592 2°55.505 7.5 348 1.7 103060 32
2010-12-14 09:37 51°32.647 2°55.518 6.2 355 1.7 103050 34
2010-12-14 09:38 51°32.688 2°55.517 8.6 1 1.8 103060 33
2010-12-14 09:39 51°32.734 2°55.482 5.8 18 1.7 103070 31
2010-12-14 09:40 51°32.763 2°55.435 2.4 23 1.7 103070 32
2010-12-14 09:41 51°32.796 2°55.362 6.1 20 1.7 103100 32
2010-12-14 09:42 51°32.945 2°55.195 7.2 355 1.7 103060 32
2010-12-14 09:43 51°33.147 2°55.202 12.8 338 1.8 103030 33
2010-12-14 09:44 51°33.19 2°55.497 11.7 320 1.8 103040 34
2010-12-14 09:45 51°33.098 2°55.794 11.5 317 1.9 103050 33
2010-12-14 09:46 51°33.015 2°56.097 12 316 1.9 103040 34
2010-12-14 09:47 51°32.916 2°56.368 8.1 322 1.9 103040 34
2010-12-14 09:48 51°32.952 2°56.487 6.1 350 1.8 103070 34
2010-12-14 09:49 51°32.998 2°56.479 7.3 15 1.8 103070 31
2010-12-14 09:50 51°33.021 2°56.431 7.2 36 1.9 103080 34
2010-12-14 09:51 51°33.027 2°56.371 4.9 43 1.9 103100 34
2010-12-14 09:52 51°33.035 2°56.298 4.2 29 1.8 103090 34
2010-12-14 09:53 51°33.05 2°56.24 5.1 30 1.9 103100 35
2010-12-14 09:54 51°33.066 2°56.193 5.3 34 1.9 103100 32
2010-12-14 09:55 51°33.08 2°56.161 5.4 28 1.9 103090 35
2010-12-14 09:56 51°33.089 2°56.138 6.9 29 1.9 103090 32
2010-12-14 09:57 51°33.094 2°56.118 5.3 22 1.9 103090 33
2010-12-14 09:58 51°33.095 2°56.099 5.5 23 1.9 103090 34
2010-12-14 09:59 51°33.095 2°56.082 5.8 29 2 103090 35
2010-12-14 10:00 51°33.127 2°56.017 5.1 19 2 103090 33
2010-12-14 10:01 51°33.192 2°55.754 2.8 2 2.1 103090 34
2010-12-14 10:02 51°33.198 2°55.406 0.7 355 2 103090 33
2010-12-14 10:03 51°33.077 2°55.149 4 26 2 103100 33
2010-12-14 10:04 51°32.907 2°55.263 7.9 21 2 103070 32
2010-12-14 10:05 51°32.852 2°55.392 6.1 20 1.9 103080 33
2010-12-14 10:06 51°32.832 2°55.452 7.2 20 2.1 103080 35
2010-12-14 10:07 51°32.819 2°55.482 6.6 24 2.1 103080 33
2010-12-14 10:08 51°32.81 2°55.492 4.4 20 2.1 103070 33
2010-12-14 10:09 51°32.805 2°55.491 5.6 21 2.1 103090 34
2010-12-14 10:10 51°32.8 2°55.483 3.9 23 2.2 103090 34
2010-12-14 10:11 51°32.796 2°55.471 7 253 2.2 103090 34
2010-12-14 10:12 51°32.794 2°55.456 5.7 25 2.2 103090 32
2010-12-14 10:13 51°32.792 2°55.44 6.2 258 2.2 103100 34
2010-12-14 10:14 51°32.792 2°55.422 5 261 2.1 103100 35
2010-12-14 10:15 51°32.791 2°55.403 4.3 261 2.1 103100 32
2010-12-14 10:16 51°32.79 2°55.383 6.3 258 2.2 103090 33
2010-12-14 10:17 51°32.79 2°55.365 5.8 262 2.1 103100 35
2010-12-14 10:18 51°32.787 2°55.346 4.1 261 2.2 103110 32
2010-12-14 10:19 51°32.786 2°55.33 5 262 2.2 103100 35
2010-12-14 10:20 51°32.781 2°55.317 5.6 250 2.3 103090 35
2010-12-14 10:21 51°32.773 2°55.316 5.3 254 2.3 103090 33
2010-12-14 10:22 51°32.765 2°55.323 6.3 20 2.3 103090 35
2010-12-14 10:23 51°32.761 2°55.332 5.2 321 2.3 103090 33
2010-12-14 10:24 51°32.758 2°55.335 5.6 25 2.3 103090 35
2010-12-14 10:25 51°32.721 2°55.362 5.1 21 2.3 103080 33
2010-12-14 10:26 51°32.685 2°55.29 1.4 28 2.3 103110 35
2010-12-14 10:27 51°32.702 2°55.198 -999 22 2.2 103110 34
2010-12-14 10:28 51°32.727 2°55.13 0.1 22 2.1 103110 32
2010-12-14 10:29 51°32.748 2°55.077 -999 22 1.9 103100 33
2010-12-14 10:30 51°32.787 2°55.005 -999 24 2 103100 34
2010-12-14 10:31 51°32.905 2°54.986 3.2 353 1.8 103100 33
2010-12-14 10:32 51°33.039 2°55.045 5.2 345 1.8 103090 34
2010-12-14 10:33 51°33.158 2°55.161 7.2 348 1.7 103090 36
2010-12-14 10:34 51°33.224 2°55.338 6.7 337 1.6 103100 35
2010-12-14 10:35 51°33.194 2°55.539 5.5 333 1.6 103110 33
2010-12-14 10:36 51°33.165 2°55.687 5.6 327 1.5 103100 35
2010-12-14 10:37 51°33.141 2°55.802 4.7 333 1.4 103100 35
2010-12-14 10:38 51°33.13 2°55.871 3.7 340 1.4 103120 36
2010-12-14 10:39 51°33.126 2°55.914 0.2 338 1.4 103100 34
2010-12-14 10:40 51°33.125 2°55.941 -999 339 1.4 103110 34
2010-12-14 10:41 51°33.125 2°55.96 -999 339 1.4 103110 34
2010-12-14 10:42 51°33.125 2°55.975 -999 344 1.4 103110 35
2010-12-14 10:43 51°33.126 2°55.982 -999 332 1.4 103110 34
2010-12-14 10:44 51°33.124 2°55.981 -999 339 1.4 103100 34
2010-12-14 10:45 51°33.124 2°55.975 -999 341 1.5 103100 33
2010-12-14 10:46 51°33.122 2°55.965 -999 344 1.5 103100 34
2010-12-14 10:47 51°33.12 2°55.951 -999 337 1.5 103130 34
2010-12-14 10:48 51°33.118 2°55.934 -999 325 1.5 103120 34
2010-12-14 10:49 51°33.116 2°55.916 -999 330 1.5 103110 34
2010-12-14 10:50 51°33.115 2°55.901 -999 319 1.5 103110 34
2010-12-14 10:51 51°33.113 2°55.883 -999 326 1.5 103120 34
2010-12-14 10:52 51°33.111 2°55.867 -999 315 1.5 103120 34
2010-12-14 10:53 51°33.102 2°55.861 -999 324 1.6 103120 33
2010-12-14 10:54 51°33.094 2°55.897 -999 356 1.6 103110 34
2010-12-14 10:55 51°33.111 2°55.955 -999 356 1.5 103120 34
2010-12-14 10:56 51°33.126 2°55.997 -999 344 1.5 103120 34
2010-12-14 10:57 51°33.127 2°56.024 -999 338 1.5 103120 34
2010-12-14 10:58 51°33.121 2°56.038 -999 328 1.5 103130 34
2010-12-14 10:59 51°33.114 2°56.043 -999 333 1.5 103120 34
2010-12-14 11:00 51°33.11 2°56.041 -999 342 1.5 103120 34
2010-12-14 11:01 51°33.107 2°56.032 -999 316 1.4 103130 33
2010-12-14 11:02 51°33.104 2°56.017 -999 337 1.4 103130 34
2010-12-14 11:03 51°33.102 2°56.001 -999 336 1.4 103130 34
2010-12-14 11:04 51°33.1 2°55.983 -999 332 1.4 103120 34
2010-12-14 11:05 51°33.098 2°55.965 -999 328 1.4 103120 34
2010-12-14 11:06 51°33.094 2°55.951 -999 326 1.5 103130 34
2010-12-14 11:07 51°33.079 2°55.963 -999 319 1.4 103140 34
2010-12-14 11:08 51°33.064 2°55.994 -999 325 1.4 103120 34
2010-12-14 11:09 51°33.052 2°56.019 -999 335 1.4 103120 33
2010-12-14 11:10 51°33.044 2°56.034 -999 336 1.4 103130 34
2010-12-14 11:11 51°33.042 2°56.043 -999 338 1.4 103130 34
2010-12-14 11:12 51°33.038 2°56.045 -999 333 1.4 103140 34
2010-12-14 11:13 51°33.035 2°56.04 -999 344 1.5 103120 34
2010-12-14 11:14 51°33.033 2°56.034 -999 334 1.4 103140 33
2010-12-14 11:15 51°33.027 2°56.048 -999 338 1.4 103140 34
2010-12-14 11:16 51°33.023 2°56.076 -999 337 1.4 103140 34
2010-12-14 11:17 51°33.017 2°56.112 -999 338 1.4 103160 33
2010-12-14 11:18 51°33.014 2°56.151 -999 330 1.4 103160 34
2010-12-14 11:19 51°33.004 2°56.202 -999 328 1.4 103160 34
2010-12-14 11:20 51°32.95 2°56.261 -999 327 1.4 103150 34
2010-12-14 11:21 51°32.844 2°56.293 -999 316 1.4 103140 34
2010-12-14 11:22 51°32.718 2°56.286 -999 315 1.4 103140 34
2010-12-14 11:23 51°32.599 2°56.215 -999 22 1.4 103140 34
2010-12-14 11:24 51°32.578 2°56.02 -999 323 1.4 103150 34
2010-12-14 11:25 51°32.629 2°55.877 -999 9 1.4 103150 32
2010-12-14 11:26 51°32.66 2°55.788 -999 40 1.4 103150 34
2010-12-14 11:27 51°32.679 2°55.727 -999 39 1.4 103150 34
2010-12-14 11:28 51°32.693 2°55.693 -999 40 1.4 103150 34
2010-12-14 11:29 51°32.695 2°55.671 -999 39 1.4 103150 34
2010-12-14 11:30 51°32.692 2°55.652 -999 34 1.5 103140 34
2010-12-14 11:31 51°32.688 2°55.634 -999 36 1.5 103150 34
2010-12-14 11:32 51°32.684 2°55.617 -999 44 1.6 103150 34
2010-12-14 11:33 51°32.68 2°55.601 0.1 18 1.6 103150 33
2010-12-14 11:34 51°32.68 2°55.549 -999 270 1.6 103160 34
2010-12-14 11:35 51°32.646 2°55.495 -999 22 1.6 103150 34
2010-12-14 11:36 51°32.601 2°55.503 -999 315 1.6 103150 34
2010-12-14 11:37 51°32.554 2°55.536 -999 22 1.6 103150 34
2010-12-14 11:38 51°32.523 2°55.564 -999 317 1.5 103150 34
2010-12-14 11:39 51°32.5 2°55.577 -999 22 1.5 103170 34
2010-12-14 11:40 51°32.483 2°55.581 -999 321 1.5 103160 34
2010-12-14 11:41 51°32.471 2°55.582 -999 319 1.5 103160 34
2010-12-14 11:42 51°32.461 2°55.577 -999 329 1.5 103150 33
2010-12-14 11:43 51°32.454 2°55.571 -999 324 1.5 103160 33
2010-12-14 11:44 51°32.447 2°55.563 -999 325 1.5 103160 34
2010-12-14 11:45 51°32.441 2°55.549 -999 329 1.5 103150 34
2010-12-14 11:46 51°32.436 2°55.531 -999 339 1.4 103160 34
2010-12-14 11:47 51°32.43 2°55.513 -999 343 1.5 103160 34
2010-12-14 11:48 51°32.424 2°55.495 -999 329 1.5 103170 34
2010-12-14 11:49 51°32.418 2°55.478 0.1 324 1.4 103170 34
2010-12-14 11:50 51°32.413 2°55.458 -999 329 1.5 103160 34
2010-12-14 11:51 51°32.408 2°55.438 -999 22 1.5 103160 34
2010-12-14 11:52 51°32.402 2°55.418 -999 22 1.5 103160 34
2010-12-14 11:53 51°32.395 2°55.397 -999 22 1.5 103160 34
2010-12-14 11:54 51°32.387 2°55.378 -999 22 1.6 103160 34
2010-12-14 11:55 51°32.378 2°55.361 -999 22 1.6 103160 34
2010-12-14 11:56 51°32.37 2°55.343 -999 22 1.6 103160 34
2010-12-14 11:57 51°32.361 2°55.325 -999 22 1.7 103160 34
2010-12-14 11:58 51°32.339 2°55.334 0.1 319 1.6 103170 34
2010-12-14 11:59 51°32.317 2°55.452 7.5 333 1.7 103150 34
2010-12-14 12:00 51°32.351 2°55.609 6.6 340 1.7 103150 36
2010-12-14 12:01 51°32.438 2°55.719 6.7 348 1.6 103150 33
2010-12-14 12:02 51°32.518 2°55.833 6.9 332 1.6 103160 33
2010-12-14 12:03 51°32.529 2°55.954 4 335 1.5 103160 32
2010-12-14 12:04 51°32.511 2°56.014 3.5 324 1.5 103170 34
2010-12-14 12:05 51°32.493 2°56.045 4.9 317 1.5 103160 33
2010-12-14 12:06 51°32.477 2°56.06 5.6 22 1.6 103160 35
2010-12-14 12:07 51°32.463 2°56.064 4 323 1.5 103150 35
2010-12-14 12:08 51°32.45 2°56.062 2.7 327 1.5 103160 36
2010-12-14 12:09 51°32.438 2°56.057 3.4 327 1.5 103160 33
2010-12-14 12:10 51°32.428 2°56.048 0.6 324 1.5 103170 34
2010-12-14 12:11 51°32.418 2°56.036 1.4 322 1.5 103170 31
2010-12-14 12:12 51°32.409 2°56.02 1.9 323 1.4 103160 32
2010-12-14 12:13 51°32.4 2°56.002 -999 324 1.4 103160 34
2010-12-14 12:14 51°32.39 2°55.984 -999 22 1.4 103160 33
2010-12-14 12:15 51°32.38 2°55.966 -999 316 1.4 103160 33
2010-12-14 12:16 51°32.37 2°55.947 -999 22 1.4 103160 34
2010-12-14 12:17 51°32.359 2°55.929 -999 22 1.4 103160 34
2010-12-14 12:18 51°32.338 2°55.938 -999 329 1.5 103160 34
2010-12-14 12:19 51°32.344 2°56.002 -999 335 1.5 103160 34
2010-12-14 12:20 51°32.417 2°56.101 -999 354 1.5 103160 34
2010-12-14 12:21 51°32.525 2°56.035 -999 4 1.4 103160 34
2010-12-14 12:22 51°32.584 2°55.867 -999 2 1.4 103170 34
2010-12-14 12:23 51°32.586 2°55.749 -999 22 1.4 103170 34
2010-12-14 12:24 51°32.574 2°55.669 -999 22 1.6 103170 34
2010-12-14 12:25 51°32.567 2°55.599 -999 43 1.7 103180 34
2010-12-14 12:26 51°32.577 2°55.546 -999 25 1.6 103170 34
2010-12-14 12:27 51°32.596 2°55.513 -999 8 1.5 103160 34
2010-12-14 12:28 51°32.611 2°55.496 -999 7 1.5 103170 34
2010-12-14 12:29 51°32.621 2°55.484 -999 12 1.5 103170 34
2010-12-14 12:30 51°32.626 2°55.473 -999 3 1.5 103170 34
2010-12-14 12:31 51°32.638 2°55.507 -999 327 1.5 103170 34
2010-12-14 12:32 51°32.608 2°55.547 6.8 24 1.5 103150 34
2010-12-14 12:33 51°32.567 2°55.533 4.4 263 1.5 103160 35
2010-12-14 12:34 51°32.534 2°55.457 4.1 24 1.4 103170 36
2010-12-14 12:35 51°32.549 2°55.371 3.7 23 1.4 103170 32
2010-12-14 12:36 51°32.614 2°55.342 3.5 359 1.5 103170 32
2010-12-14 12:37 51°32.708 2°55.33 3.8 16 1.4 103160 36
2010-12-14 12:38 51°32.753 2°55.301 0.4 18 1.3 103180 35
2010-12-14 12:39 51°32.775 2°55.272 0.1 34 1.2 103180 34
2010-12-14 12:40 51°32.786 2°55.245 2.6 29 1.3 103180 35
2010-12-14 12:41 51°32.789 2°55.22 2.8 6 1.3 103170 31
2010-12-14 12:42 51°32.786 2°55.197 2.6 15 1.3 103180 34
2010-12-14 12:43 51°32.775 2°55.172 0.1 18 1.3 103180 33
2010-12-14 12:44 51°32.76 2°55.147 -999 29 1.2 103180 33
2010-12-14 12:45 51°32.746 2°55.126 1.1 37 1.3 103190 32
2010-12-14 12:46 51°32.733 2°55.106 2 44 1.3 103180 35
2010-12-14 12:47 51°32.718 2°55.084 3.7 37 1.3 103180 34
2010-12-14 12:48 51°32.705 2°55.064 4.5 41 1.3 103180 32
2010-12-14 12:49 51°32.692 2°55.043 3.2 18 1.2 103180 35
2010-12-14 12:50 51°32.678 2°55.023 3.5 25 1.3 103190 33
2010-12-14 12:51 51°32.665 2°55.002 3.1 17 1.2 103190 35
2010-12-14 12:52 51°32.652 2°54.98 3 45 1.2 103190 33
2010-12-14 12:53 51°32.64 2°54.954 3.9 24 1.3 103190 33
2010-12-14 12:54 51°32.634 2°54.917 3 35 1.3 103190 32
2010-12-14 12:55 51°32.652 2°54.866 3.4 13 1.3 103190 33
2010-12-14 12:56 51°32.683 2°54.865 5 356 1.3 103180 34
2010-12-14 12:57 51°32.707 2°54.919 5.7 334 1.3 103190 32
2010-12-14 12:58 51°32.691 2°54.969 5.9 18 1.4 103180 32
2010-12-14 12:59 51°32.666 2°54.984 4 318 1.4 103180 32
2010-12-14 13:00 51°32.643 2°54.987 2.4 326 1.3 103190 35
2010-12-14 13:01 51°32.624 2°54.982 4.7 322 1.4 103170 34
2010-12-14 13:02 51°32.606 2°54.974 2.6 27 1.4 103190 32
2010-12-14 13:03 51°32.589 2°54.962 -999 22 1.3 103190 33
2010-12-14 13:04 51°32.572 2°54.946 0.1 22 1.4 103180 33
2010-12-14 13:05 51°32.554 2°54.926 -999 22 1.4 103180 34
2010-12-14 13:06 51°32.538 2°54.909 -999 22 1.4 103190 34
2010-12-14 13:07 51°32.521 2°54.894 -999 315 1.4 103180 34
2010-12-14 13:08 51°32.5 2°54.889 -999 22 1.4 103180 33
2010-12-14 13:09 51°32.479 2°54.886 -999 317 1.4 103180 32
2010-12-14 13:10 51°32.461 2°54.879 -999 319 1.3 103180 33
2010-12-14 13:11 51°32.443 2°54.867 -999 333 1.4 103180 33
2010-12-14 13:12 51°32.427 2°54.855 -999 325 1.4 103180 34
2010-12-14 13:13 51°32.409 2°54.845 -999 321 1.4 103190 34
2010-12-14 13:14 51°32.393 2°54.831 -999 321 1.4 103190 34
2010-12-14 13:15 51°32.376 2°54.811 -999 22 1.5 103180 34
2010-12-14 13:16 51°32.353 2°54.797 0.1 22 1.5 103190 34
2010-12-14 13:17 51°32.254 2°54.797 -999 22 1.5 103180 33
2010-12-14 13:18 51°32.075 2°54.773 6.6 19 1.5 103180 32
2010-12-14 13:19 51°31.863 2°54.743 6.9 17 1.5 103170 33
2010-12-14 13:20 51°31.646 2°54.693 6.1 22 1.5 103180 33
2010-12-14 13:21 51°31.457 2°54.639 6.6 22 1.5 103180 33
2010-12-14 13:22 51°31.312 2°54.591 5.4 24 1.4 103180 34
2010-12-14 13:23 51°31.175 2°54.547 5.8 24 1.4 103190 35
2010-12-14 13:24 51°31.039 2°54.502 5.2 18 1.4 103190 35
2010-12-14 13:25 51°30.904 2°54.459 4 24 1.4 103180 34
2010-12-14 13:26 51°30.768 2°54.413 4.9 25 1.4 103180 35
2010-12-14 13:27 51°30.635 2°54.367 4.8 24 1.5 103190 32
2010-12-14 13:28 51°30.506 2°54.323 5.6 20 1.5 103190 32
2010-12-14 13:29 51°30.38 2°54.281 3.7 26 1.5 103190 34
2010-12-14 13:30 51°30.252 2°54.238 5 27 1.4 103180 34
2010-12-14 13:31 51°30.121 2°54.208 4.2 21 1.4 103190 35
2010-12-14 13:32 51°29.99 2°54.18 3.8 25 1.4 103190 32
2010-12-14 13:33 51°29.857 2°54.15 4.2 21 1.4 103190 34
2010-12-14 13:34 51°29.725 2°54.121 4.7 26 1.4 103190 35
2010-12-14 13:35 51°29.594 2°54.091 6.2 23 1.4 103190 32
2010-12-14 13:36 51°29.461 2°54.06 4.9 26 1.4 103190 35
2010-12-14 13:37 51°29.329 2°54.028 4.6 24 1.4 103190 32
2010-12-14 13:38 51°29.195 2°53.997 5.3 26 1.4 103200 34
2010-12-14 13:39 51°29.062 2°53.966 5.3 26 1.4 103200 32
2010-12-14 13:40 51°28.928 2°53.933 4.3 21 1.4 103200 34
2010-12-14 13:41 51°28.794 2°53.902 5.2 24 1.3 103200 34
2010-12-14 13:42 51°28.659 2°53.873 5.8 23 1.3 103200 33
2010-12-14 13:43 51°28.524 2°53.841 4.4 21 1.4 103200 31
2010-12-14 13:44 51°28.388 2°53.81 5.5 25 1.4 103220 32
2010-12-14 13:45 51°28.252 2°53.777 6.3 21 1.4 103200 32
2010-12-14 13:46 51°28.115 2°53.745 6.2 25 1.3 103200 34
2010-12-14 13:47 51°27.978 2°53.713 4.9 18 1.3 103200 32
2010-12-14 13:48 51°27.84 2°53.684 5.2 23 1.3 103200 32
2010-12-14 13:49 51°27.703 2°53.654 4.7 24 1.3 103200 34
2010-12-14 13:50 51°27.567 2°53.619 5.5 25 1.3 103210 31
2010-12-14 13:51 51°27.433 2°53.582 5.2 20 1.4 103200 31
2010-12-14 13:52 51°27.3 2°53.546 4.4 21 1.4 103210 35
2010-12-14 13:53 51°27.166 2°53.509 4.8 26 1.4 103210 33
2010-12-14 13:54 51°27.032 2°53.48 3.4 21 1.4 103210 32
2010-12-14 13:55 51°26.898 2°53.459 3.6 26 1.4 103210 32
2010-12-14 13:56 51°26.765 2°53.436 3.5 24 1.4 103210 34
2010-12-14 13:57 51°26.632 2°53.414 4.9 26 1.3 103210 31
2010-12-14 13:58 51°26.5 2°53.394 5 20 1.4 103210 32
2010-12-14 13:59 51°26.369 2°53.375 4.7 20 1.4 103210 35
2010-12-14 14:00 51°26.237 2°53.353 4.8 21 1.3 103210 31
2010-12-14 14:01 51°26.104 2°53.336 4.4 22 1.3 103220 32
2010-12-14 14:02 51°25.971 2°53.317 6.1 21 1.3 103210 33
2010-12-14 14:03 51°25.838 2°53.301 5.5 26 1.3 103210 32
2010-12-14 14:04 51°25.706 2°53.282 5.9 20 1.3 103220 35
2010-12-14 14:05 51°25.573 2°53.263 4.6 319 1.2 103220 34
2010-12-14 14:06 51°25.44 2°53.244 5.9 24 1.2 103220 34
2010-12-14 14:07 51°25.305 2°53.224 4.8 20 1.1 103220 31
2010-12-14 14:08 51°25.17 2°53.206 5 17 1.1 103230 31
2010-12-14 14:09 51°25.035 2°53.185 6.9 26 1.1 103230 34
2010-12-14 14:10 51°24.886 2°53.163 4.8 20 1.2 103230 32
2010-12-14 14:11 51°24.701 2°53.132 5.1 20 1.1 103220 34
2010-12-14 14:12 51°24.51 2°53.105 6.9 20 1.1 103220 32
2010-12-14 14:13 51°24.319 2°53.072 5.2 18 1.1 103230 33
2010-12-14 14:14 51°24.12 2°53.033 8.4 21 1.1 103230 33
2010-12-14 14:15 51°23.915 2°52.991 8.2 25 1.1 103220 34
2010-12-14 14:16 51°23.71 2°52.951 9.5 20 1.1 103220 34
2010-12-14 14:17 51°23.505 2°52.916 6.5 18 1 103220 34
2010-12-14 14:18 51°23.3 2°52.887 7 25 1 103230 33
2010-12-14 14:19 51°23.094 2°52.867 8.2 20 1 103220 32
2010-12-14 14:20 51°22.887 2°52.822 5.6 20 1 103220 31
2010-12-14 14:21 51°22.678 2°52.768 8 18 0.9 103230 32
2010-12-14 14:22 51°22.471 2°52.723 9.9 20 1 103220 33
2010-12-14 14:23 51°22.266 2°52.683 7.5 25 0.9 103220 34
2010-12-14 14:24 51°22.06 2°52.638 7.3 25 1 103230 33
2010-12-14 14:25 51°21.853 2°52.606 6.4 25 0.9 103230 31
2010-12-14 14:26 51°21.647 2°52.561 5.8 316 0.9 103230 32
2010-12-14 14:27 51°21.44 2°52.533 6.9 22 0.9 103230 32
2010-12-14 14:28 51°21.231 2°52.488 7 24 0.9 103220 32
2010-12-14 14:29 51°21.025 2°52.449 5.2 22 0.8 103220 32
2010-12-14 14:30 51°20.814 2°52.409 6 25 0.8 103220 32
2010-12-14 14:31 51°20.607 2°52.366 7.8 21 0.8 103220 32
2010-12-14 14:32 51°20.401 2°52.327 6.2 316 0.9 103220 31
2010-12-14 14:33 51°20.196 2°52.294 6.4 315 0.8 103220 33
2010-12-14 14:34 51°19.989 2°52.254 6.6 25 0.9 103220 32
2010-12-14 14:35 51°19.782 2°52.209 6.3 316 0.8 103230 31
2010-12-14 14:36 51°19.576 2°52.193 5.2 26 0.8 103230 33
2010-12-14 14:37 51°19.369 2°52.208 5.4 22 0.8 103230 33
2010-12-14 14:38 51°19.161 2°52.225 6 19 0.8 103230 32
2010-12-14 14:39 51°18.953 2°52.241 7.5 315 0.8 103230 32
2010-12-14 14:40 51°18.743 2°52.249 6.4 21 0.8 103240 33
2010-12-14 14:41 51°18.536 2°52.254 6.5 20 0.8 103240 31
2010-12-14 14:42 51°18.328 2°52.263 5 316 0.8 103240 31
2010-12-14 14:43 51°18.117 2°52.27 6 318 0.8 103240 34
2010-12-14 14:44 51°17.908 2°52.284 6.1 19 0.8 103250 33
2010-12-14 14:45 51°17.699 2°52.3 5.1 25 0.8 103240 34
2010-12-14 14:46 51°17.489 2°52.313 4.3 18 0.8 103250 32
2010-12-14 14:47 51°17.279 2°52.328 4.6 19 0.8 103240 33
2010-12-14 14:48 51°17.076 2°52.369 6.8 20 0.8 103250 34
2010-12-14 14:49 51°16.879 2°52.476 5.7 316 0.8 103240 32
2010-12-14 14:50 51°16.695 2°52.618 6.8 322 0.8 103250 33
2010-12-14 14:51 51°16.511 2°52.758 6.4 316 0.8 103250 34
2010-12-14 14:52 51°16.333 2°52.915 4.7 22 0.9 103240 33
2010-12-14 14:53 51°16.162 2°53.082 7 319 0.9 103240 31
2010-12-14 14:54 51°15.99 2°53.234 6.1 319 0.8 103240 34
2010-12-14 14:55 51°15.821 2°53.398 6.4 323 0.8 103240 33
2010-12-14 14:56 51°15.668 2°53.597 5.6 323 0.7 103240 33
2010-12-14 14:57 51°15.51 2°53.796 6.6 322 0.8 103250 31
2010-12-14 14:58 51°15.349 2°53.994 7.5 327 0.7 103250 34
2010-12-14 14:59 51°15.187 2°54.187 6.5 325 0.7 103250 33
2010-12-14 15:00 51°15.022 2°54.379 7 330 0.6 103250 32
2010-12-14 15:01 51°14.862 2°54.587 7.8 330 0.6 103250 31
2010-12-14 15:02 51°14.71 2°54.791 8.3 328 0.6 103250 33
2010-12-14 15:03 51°14.549 2°54.984 6 327 0.5 103250 33
2010-12-14 15:04 51°14.38 2°55.169 7 330 0.5 103250 33
2010-12-14 15:05 51°14.224 2°55.33 5.1 326 0.4 103250 31
2010-12-14 15:06 51°14.101 2°55.428 4.1 329 0.4 103250 31
2010-12-14 15:07 51°13.979 2°55.517 4.8 329 0.4 103250 31
2010-12-14 15:08 51°13.861 2°55.602 4.5 329 0.4 103250 31
2010-12-14 15:09 51°13.762 2°55.712 4.1 331 0.4 103250 34
2010-12-14 15:10 51°13.706 2°55.822 0.7 331 0.3 103250 33
2010-12-14 15:11 51°13.673 2°55.906 0.2 323 0.3 103250 32